NOAA 17 DEB

Satellite information

Favourite Embed

Satellite Type and Status

DEBRISIN ORBIT

Key statistics

Satellite NOAA 17 DEB at a glance.

Uptime

8353

Days in orbit

Revolutions

≈ 14.7

Per day

Orbit

SSO

Sun Synchronous Orbit

Inclination

99.0

Latest

Satellite identification and parameters

Extended collection of information and parameters for NOAA 17 DEB.

Object identification

Identified? True

Debris? True

Object name: NOAA 17 DEB

International designator: 2002-032CG

Object number (NORAD): 48747

Object ID (CCSDS): 48747

Country: UNITED STATES OF AMERICA (US)

Current information (Y/N): Y

RCS size: SMALL

Orbital parameters

Period: 97.956 minutes

Inclination: 99.0342 deg

SMA: 7039.067 km

Apoapsis: 682.381 km

Periapsis: 639.482 km

RAAN: 194.2181 deg

Eccentricy: 0.0030472

Argument of periapsis: 203.9405 deg

Mean anomaly: 156.0382 deg

Mean motion: 14.70043295 rev/day

Mean motion (dot): 0.00022187 rev/day2

B* drag term: 0.0036686 1/REarth

Two-line elements (TLE)

Creation date: May 6, 2025, 3:54 a.m.

Reference frame: TEME

Reference center: EARTH

Epoch: May 5, 2025, 11:15 a.m. UTC

TLE line 0: 0 NOAA 17 DEB

TLE line 1: 1 48747U 02032CG 25125.46924156 .00022187 00000-0 36686-2 0 9990

TLE line 2: 2 48747 99.0342 194.2181 0030472 203.9405 156.0382 14.70043295216823

Live tracking on map

Real-time ground track for satellite NOAA 17 DEB.

In-orbit conjunctions

A list of the most updated potential collisions computed for object NOAA 17 DEB.

Target Orbit TCA Probability of collision Miss distance Type
ATLAS CENTAUR R/B LEO 2024-11-05 12:10:31 0.0001098631 761.0 (m) ROCKET BODY

Associated space launch

NOAA M carried weather imagers and microwave and infrared sounders, as well as a SARSAT search-and-rescue package. It had an on-orbit mass of 1475 kg.

NOAA 17 DEB was lifted into orbit during the mission ‘Titan II SLV | NOAA 17’, on board a Titan II SLV space rocket.

The launch took place on June 24, 2002, 6:23 p.m. from Space Launch Complex 4W.

For more information about the launch, click the button.

Launch to space Titan II SLV | NOAA 17
Titan II SLV | NOAA 17

Agency: N/A

Status: Launch Successful

Launch date: June 24, 2002, 6:23 p.m. UTC

Rocket: Titan II SLV

Launch pad: Space Launch Complex 4W

Location: Vandenberg SFB, CA, USA

...

Latest news about this satellite

There are no fresh news available about this satellite. Check back as we update our databases every day.


Newsletter sign-up

Weekly statistics, charts and insights to help you stay on top of the space industry.